Tracking 19562 objects as of 21-Mar-2019
HD Live streaming from Space Station
objects crossing your sky now

OPS 6073 (DMSP 4A F2)

Track OPS 6073 (DMSP 4A F2) now!
10-day predictions
OPS 6073 (DMSP 4A F2) is classified as:


NORAD ID: 2669
Int'l Code: 1967-010A
Perigee: 772.5 km
Apogee: 845.3 km
Inclination: 99.0 °
Period: 100.9 minutes
Semi major axis: 7179 km
RCS: 0.6644 m2 (medium)
Launch date: February 8, 1967
Source: United States (US)
Launch site: AIR FORCE WESTERN TEST RANGE (AFWTR)
aabbcc
Your satellite tracking list
Your tracking list is empty




NASA's NSSDC Master Catalog

Two Line Element Set (TLE):
1  2669U 67010A   19079.63693173  .00000004  00000-0  20568-4 0  9990
2  2669  98.9741 331.1203 0050680 111.7134 248.9451 14.27007721707393
Source of the keplerian elements: AFSPC